Lid_Strength_Index
4 4 4 4 3 3 3 3 3 1 1 2 4 4 5 5 6 7 9 8 9 11 11 11 11 12 12 12 14 13 14 14 13 15 16 16 17 16 17 16 16 16 17 17 16 18 19 13 13 16 14 12 12 12
3 4 4 5 4 3 3 4 3 2 2 3 4 5 5 5 5 6 9 7 8 10 12 10 10 10 11 11 12 13 14 14 12 13 14 14 16 15 16 18 14 17 15 16 15 16 12 12 13 12 11 13 12 11
1 3 3 4 4 4 4 4 3 3 3 3 4 4 5 5 5 6 8 8 8 10 11 11 12 11 9 9 9 12 12 11 12 11 11 12 15 13 17 16 15 14 13 15 15 14 14 13 11 11 11 11 10 9
0 1 1 2 3 3 3 3 4 3 3 3 3 3 5 6 6 6 7 7 9 11 14 13 10 11 10 9 9 9 10 10 10 10 12 13 14 12 14 15 15 15 14 16 16 14 13 12 11 10 10 9 8 8
-0 0 1 1 1 2 2 2 2 3 4 3 3 3 4 5 5 6 7 7 7 10 13 13 11 10 10 9 9 9 9 10 11 12 13 14 13 14 13 14 16 12 14 16 17 13 13 12 10 9 9 9 8 8
-1 -0 0 0 1 0 1 2 1 1 1 2 2 3 4 4 5 6 10 6 6 8 11 14 11 12 10 9 9 9 9 10 10 11 12 12 12 12 15 16 13 11 11 10 12 10 10 9 8 8 8 8 8 8
-1 -1 -0 -0 0 1 0 1 1 1 0 0 0 -0 0 2 4 8 9 6 5 6 11 14 14 12 10 10 10 10 9 10 10 11 12 12 12 11 14 16 11 11 10 9 8 9 10 9 10 8 8 7 7 7
-2 -1 -1 -1 -0 0 1 0 0 1 0 -0 -0 -0 -0 1 2 4 4 4 5 8 10 14 15 14 11 12 12 10 11 10 10 11 11 12 11 11 15 10 10 9 9 8 8 8 8 8 8 8 7 7 8 8
-2 -2 -2 -1 -1 -1 0 0 -0 -0 -1 -1 -0 0 2 4 6 5 2 2 2 6 11 13 15 16 11 12 11 11 10 13 11 12 11 11 12 14 11 10 9 8 9 9 8 8 8 8 8 8 8 8 8 8
-2 -2 -2 -2 -1 -1 -1 -0 -0 -1 -1 0 3 5 7 5 2 3 5 6 6 7 8 11 10 13 11 11 12 11 11 12 14 12 10 12 13 9 8 8 7 7 7 7 9 9 8 8 8 8 8 7 7 7
-2 -2 -2 -2 -2 -1 -1 -1 -0 -1 -0 2 5 7 5 3 4 7 10 10 10 12 9 9 10 11 9 11 11 10 12 12 15 14 13 13 13 9 8 7 6 5 6 6 7 7 7 7 8 8 8 7 7 7
-2 -2 -2 -2 -2 -2 -1 -1 -1 2 4 3 3 3 4 6 9 11 12 12 12 12 10 10 9 8 8 7 10 11 13 13 15 12 13 15 10 8 7 7 6 6 6 6 6 6 6 7 6 7 7 7 7 7
-2 -2 -2 -2 -2 -1 -1 -1 -1 -0 0 2 4 7 7 10 13 14 16 14 13 10 9 9 10 8 8 8 11 11 13 14 11 14 14 11 8 7 7 6 6 5 5 5 6 6 6 6 6 7 7 7 7 8
-2 -1 -1 -2 -2 -2 -2 -1 -2 -1 1 5 8 11 11 13 12 11 11 10 9 8 8 8 9 9 8 10 10 13 13 12 15 16 14 9 7 6 6 6 6 7 6 6 6 6 6 7 7 7 7 7 8 8
-1 -1 -1 -1 -1 -1 -1 -2 -2 -0 2 6 8 11 11 8 10 9 9 9 9 7 7 8 8 8 10 12 11 13 15 15 13 12 9 6 6 6 6 6 6 6 6 6 6 7 7 7 7 8 7 7 7 8
-1 -1 -1 -1 -1 -1 -2 -1 1 2 4 6 8 10 10 10 10 11 10 9 7 7 7 7 10 11 12 11 13 13 13 14 11 8 6 5 6 6 6 6 6 5 6 6 6 7 7 7 8 8 8 8 8 8
-1 1 -1 -2 -1 -1 -1 2 4 4 5 7 8 7 8 9 8 9 9 8 6 7 9 9 12 13 12 13 13 10 12 8 6 6 5 6 6 6 5 5 6 6 6 6 7 7 7 7 7 8 9 8 8 8
1 -1 -1 -1 -1 -1 1 2 4 6 8 7 8 6 7 7 8 8 8 8 7 7 8 9 10 13 13 13 12 9 8 6 6 6 6 5 5 5 5 5 6 6 7 7 8 8 8 8 9 9 9 8 9 10
-1 -1 -1 -2 -1 2 4 4 3 8 7 7 7 7 7 6 6 6 7 7 6 6 8 9 10 11 10 9 8 6 6 6 7 6 5 5 5 5 5 6 6 7 7 8 8 8 8 8 9 8 9 10 11 10
-1 -1 -2 -2 -1 3 5 5 3 7 9 7 7 8 7 7 6 7 8 7 7 7 9 11 9 8 8 6 6 6 6 6 6 7 7 5 5 5 6 6 7 8 8 8 8 8 9 9 9 10 10 10 11 11
-1 -1 -1 0 2 3 4 6 6 6 8 9 9 8 8 7 7 8 8 6 8 9 9 7 7 5 5 6 6 6 6 6 7 6 7 7 5 6 7 7 8 8 9 9 9 10 10 11 10 10 10 10 11 10
1 0 3 3 5 5 6 6 7 8 9 10 9 9 9 9 9 8 6 8 8 7 7 7 6 6 6 6 6 6 6 6 6 6 5 6 8 8 9 9 9 9 9 10 10 11 11 11 10 10 10 10 10 10
1 3 6 6 8 8 9 7 9 10 11 11 11 11 11 11 11 11 9 8 7 7 6 6 6 6 7 6 7 7 7 7 7 7 7 8 8 9 9 9 9 11 11 11 10 11 11 10 10 11 10 11 11 11
4 8 11 11 10 12 9 11 10 11 11 11 11 12 13 13 13 11 11 10 8 8 8 8 8 8 7 9 8 7 8 8 8 7 7 9 10 10 10 11 11 11 11 11 11 11 11 11 11 11 11 11 11 11
10 11 10 14 11 12 13 12 13 12 13 15 14 14 14 15 12 13 13 10 10 9 8 9 9 8 8 7 7 7 8 8 9 10 10 10 11 12 12 12 12 11 11 12 13 13 13 12 12 12 12 12 12 12
14 11 11 11 12 12 12 14 14 14 14 15 14 16 16 14 14 13 11 10 10 9 9 8 7 8 8 8 9 9 9 9 11 13 11 11 13 13 14 14 14 13 11 11 13 13 12 13 13 13 13 12 11 12
14 13 10 8 9 10 12 13 12 13 15 14 14 16 15 17 15 11 10 10 9 10 10 10 10 9 10 9 9 10 11 11 12 13 12 12 12 12 13 14 15 13 12 12 12 12 13 13 13 13 13 13 12 12
10 10 13 11 11 11 12 13 14 14 12 13 13 16 16 14 13 11 11 11 13 12 12 12 13 12 12 12 13 13 13 13 12 12 12 12 12 12 13 13 13 12 12 12 11 11 12 12 13 13 13 13 12 11
11 11 11 16 14 13 13 12 12 10 10 11 11 12 12 11 12 13 11 12 12 11 11 11 12 13 12 12 12 13 13 13 15 17 17 17 16 15 13 14 14 13 12 12 11 11 12 12 12 12 12 12 10 11
11 11 13 14 14 13 12 12 12 13 12 12 12 10 11 12 13 13 13 14 14 15 15 15 15 15 15 16 16 15 13 14 15 17 18 18 17 16 15 15 14 13 12 12 14 14 12 12 13 13 12 11 10 11
13 12 14 14 14 13 15 17 16 15 15 14 16 13 12 13 13 14 14 15 15 14 14 15 16 15 17 17 17 17 16 14 15 16 16 16 16 15 15 13 11 12 13 14 15 15 15 15 15 14 13 12 11 13
13 13 13 15 13 16 17 16 17 15 16 15 15 17 15 14 16 15 15 15 14 16 16 17 18 17 17 17 16 16 14 15 16 17 16 14 13 13 12 12 13 13 14 15 15 15 15 15 15 15 14 13 13 14
15 15 16 15 15 15 17 18 17 17 17 16 17 18 18 16 17 16 14 15 16 17 18 18 18 18 18 18 18 17 15 16 16 13 13 12 11 11 12 13 14 14 15 15 15 15 16 16 16 15 14 14 15 15